Location: *
(43.4693°S, 179.6927°W)
Time: 18:59:22
(UTC+00:00)

Daily predictions for brighter satellites

Satellite Brightness Start Highest point End
(mag) Time Altitude Azimuth Time Altitude Azimuth Time Altitude Azimuth
Resurs 1-4 Rocket 4.4 12:11:47 20° S 12:11:47 20° S 12:13:26 10° S
ATLAS 5 CENTAUR R/B 4.4 12:11:49 10° SSW 12:14:19 20° S 12:14:19 20° S
Cosmos 2344 4.4 12:12:40 10° SW 12:27:01 84° W 12:27:01 84° W
ADEOS II 4.4 12:35:50 20° SSE 12:35:50 20° SSE 12:37:42 10° S
CZ-4C R/B 4.4 12:33:42 10° SSW 12:35:36 19° SSW 12:35:36 19° SSW
Cosmos 2369 Rocket 4.2 12:53:45 24° SE 12:53:45 24° SE 12:55:54 10° SSE
CZ-2D R/B 4.5 13:12:10 17° SSW 13:12:10 17° SSW 13:13:30 10° SSW
USA 281 4.2 13:02:25 10° SSE 13:06:45 43° S 13:06:45 43° S
ATLAS 2AS CENTAUR R/B 3.5 13:18:37 10° SSW 13:23:55 47° SSE 13:23:55 47° SSE
Cosmos 1943 Rocket 4.1 13:41:01 23° SSW 13:41:01 23° SSW 13:43:39 10° S
SL-16 R/B 4.1 13:37:50 10° SE 13:42:55 26° E 13:42:55 26° E
ARIANE 5 R/B 4.2 14:01:05 30° S 14:01:05 30° S 14:03:43 10° S
BREEZE-M DEB (TANK) 4.1 13:52:22 10° W 14:05:52 52° S 14:10:04 10° ESE
CZ-2C R/B 4.0 14:10:39 29° SE 14:10:39 29° SE 14:14:10 10° S
BREEZE-M DEB (TANK) 4.2 14:17:20 37° ESE 14:17:20 37° ESE 14:20:31 10° ESE
IDEFIX/ARIANE 42P 4.4 14:21:39 22° SSW 14:21:39 22° SSW 14:23:31 10° SSW
USA 215 3.7 14:25:12 10° ENE 14:31:40 61° SSE 14:38:10 10° SW
Cosmos 2369 Rocket 4.0 14:35:33 21° SW 14:35:33 21° SW 14:39:11 10° S
Cosmos 2285 Rocket 4.0 14:41:49 81° NE 14:41:57 81° ENE 14:48:28 10° SSE
Cosmos 2221 4.2 14:39:36 10° S 14:42:00 31° S 14:42:00 31° S
PAYLOAD A 4.4 14:45:24 65° SSE 14:45:24 65° SSE 14:49:58 10° S
Cosmos 1553 Rocket 3.9 14:41:22 10° S 14:47:40 79° WSW 14:47:40 79° WSW
Cosmos 1417 Rocket 4.3 14:44:51 10° S 14:51:05 87° W 14:51:10 86° NW
Cosmos 1825 4.2 14:53:20 25° SSE 14:53:20 25° SSE 14:55:03 10° S
BREEZE-M DEB (TANK) 3.6 14:51:54 52° SSW 14:52:03 52° SSW 14:55:20 10° ESE
Cosmos 2227 Rocket 3.8 14:49:35 10° S 14:54:44 33° SE 14:59:51 10° ENE
RESURS DK-1 3.9 14:59:17 10° S 15:03:12 36° ESE 15:07:05 10° NE
FENGYUN 3A 4.1 15:00:58 26° NE 15:04:01 61° ESE 15:09:25 10° S
Cosmos 2151 4.3 15:06:33 34° ENE 15:07:22 37° E 15:11:26 10° SSE
Cosmos 2297 Rocket 2.9 15:05:03 10° SSW 15:10:40 54° ESE 15:16:13 10° NE
CZ-4C R/B 4.2 15:06:53 10° SSE 15:10:35 47° E 15:10:35 47° E
DNEPR-1 R/B 4.5 15:12:47 59° W 15:13:36 64° SW 15:20:43 10° SSE
PSLV R/B 4.0 15:16:15 54° SSW 15:16:15 54° SSW 15:19:39 10° SSW
Cosmos 405 Rocket 4.5 15:14:03 26° NE 15:15:16 31° E 15:18:56 10° SSE
ATLAS 2AS CENTAUR R/B 4.4 15:09:46 10° SW 15:11:13 17° WSW 15:11:13 17° WSW
Meteor 2-14 Rocket 4.3 15:17:39 57° NNW 15:18:59 82° W 15:25:10 10° S
SL-4 R/B 3.0 15:23:22 42° SSW 15:23:38 42° SSW 15:28:06 10° SE
Cosmos 332 Rocket 3.7 15:23:49 74° WSW 15:23:53 74° WSW 15:28:48 10° SSE
ADEOS 4.4 15:21:00 10° NE 15:26:03 50° ESE 15:31:10 10° S
SL-16 R/B 2.7 15:20:47 10° S 15:26:53 54° WSW 15:28:00 48° WNW
Iridium 4 Rocket 3.7 15:23:40 10° S 15:29:36 65° W 15:30:49 52° NW
Cosmos 1900 4.2 15:29:32 68° W 15:29:51 71° SW 15:34:47 10° SSE
IKONOS-2 4.4 15:29:20 10° SSE 15:33:41 88° E 15:34:10 71° N
SL-24 R/B - RUBIN 2 4.1 15:29:05 10° SSW 15:34:17 81° SE 15:40:10 10° NE
Cosmos 1624 Rocket 3.9 15:34:06 53° NNW 15:35:24 82° WSW 15:40:50 10° SSE
Cosmos 1980 Rocket 4.3 15:31:57 10° NNE 15:36:16 23° E 15:40:37 10° SE
S3M 4.2 15:30:40 10° SSW 15:36:40 48° W 15:37:38 45° WNW
Cosmos 2266 Rocket 4.1 15:36:37 42° NW 15:38:41 62° W 15:45:06 10° S
Lacrosse 5 rocket 2.4 15:40:28 31° NNE 15:40:28 31° NNE 15:42:40 10° NE
Cosmos 1633 2.7 15:39:14 67° NE 15:39:30 71° E 15:43:12 10° SSE
Cosmos 407 Rocket 3.6 15:35:01 10° SSW 15:40:18 55° WNW 15:41:27 46° NNW
Cosmos 2056 Rocket 3.4 15:39:30 52° NW 15:40:44 75° WSW 15:46:01 10° SSE
ERBS 3.9 15:41:53 26° NE 15:42:06 26° NE 15:44:59 10° ESE
USA 305 3.0 15:42:49 56° WSW 15:43:17 60° SSW 15:47:35 10° SE
ALOS 2.2 15:41:59 45° NNW 15:43:17 67° WNW 15:48:03 10° SSW
FALCON 9 DEB 4.5 15:43:51 28° S 15:43:51 28° S 15:46:16 10° SE
Spot 1 4.4 15:39:15 10° S 15:44:26 75° WSW 15:46:16 41° NNW
Cosmos 1437 Rocket 4.2 15:41:29 10° S 15:45:25 41° ESE 15:49:20 10° NNE
Cosmos 1371 Rocket 4.0 15:44:32 48° WNW 15:45:40 60° WSW 15:50:53 10° SSE
Cosmos 2219 3.2 15:40:36 10° SSW 15:46:27 88° WNW 15:52:14 10° NNE
CZ-2C R/B 3.7 15:50:02 22° WSW 15:50:02 22° WSW 15:52:21 10° SW
Cosmos 371 Rocket 4.3 15:48:12 30° WSW 15:48:24 30° WSW 15:52:46 10° S
Cosmos 1190 Rocket 4.0 15:44:04 10° SSW 15:49:19 60° WNW 15:54:32 10° N
Alouette 2 Rocket 3.1 15:45:19 10° SSW 15:49:26 68° W 15:49:38 66° WNW
Cosmos 2084 3.5 15:53:55 49° NW 15:55:06 77° SW 15:59:36 10° SE
Cosmos 1697 Rocket 3.0 15:51:31 20° N 15:55:25 64° ENE 16:01:03 10° SSE
Cosmos 676 Rocket 4.0 15:50:29 10° SSW 15:55:53 87° WNW 16:01:15 10° NNE
USA 307 3.3 15:55:01 42° WSW 15:56:00 52° SSW 16:00:16 10° SE
USA 306 3.4 15:57:08 39° WSW 15:58:14 49° SSW 16:02:28 10° SE
Cosmos 1356 3.6 16:00:35 32° N 16:02:01 72° E 16:05:31 10° SSE
Cosmos 2082 4.3 15:58:55 10° SSW 16:04:40 61° ESE 16:10:21 10° NE
USA 308 3.5 16:05:20 32° WSW 16:06:48 46° SSW 16:11:00 10° SE
Cosmos 397 4.4 16:04:18 10° SW 16:08:22 69° WNW 16:13:06 10° NNE
CZ-4B R/B 4.0 16:05:16 10° NNE 16:09:20 48° ESE 16:13:15 10° S
Cosmos 1328 Rocket 4.2 16:05:00 10° S 16:09:25 57° E 16:13:44 10° NNE
Cosmos 44 2.9 16:05:52 10° SW 16:10:10 90° SE 16:14:30 10° NNE
Cosmos 1420 Rocket 4.0 16:07:21 27° NW 16:10:12 68° WSW 16:15:27 10° SSE
H-2A R/B 4.2 16:06:40 10° NE 16:10:14 39° ESE 16:13:48 10° S
Meteor 1-31 Rocket 2.6 16:06:53 10° N 16:10:42 79° WNW 16:14:36 10° SSW
Cosmos 1818 3.5 16:07:18 10° SW 16:12:39 64° WNW 16:17:58 10° NNE
Cosmos 1606 4.0 16:10:57 10° SSW 16:13:23 24° WSW 16:13:23 24° WSW
USA 215 3.5 16:08:33 10° NNE 16:14:47 45° NW 16:21:05 10° WSW
Timation 2 Rocket 4.2 16:11:19 10° SW 16:17:35 50° WNW 16:24:03 10° N
Meteor 1-28 Rocket 4.3 16:18:13 10° SSW 16:21:25 26° WSW 16:21:55 25° W
Okean 3 Rocket 3.6 16:19:52 12° NNW 16:24:07 72° W 16:28:46 10° S
Cosmos 1140 Rocket 4.4 16:20:11 10° SW 16:24:32 26° W 16:27:07 18° NW
Cosmos 1656 4.3 16:25:07 22° WNW 16:28:15 40° WSW 16:33:38 10° SSE
Cosmos 1933 3.8 16:28:39 10° SSW 16:32:28 38° W 16:36:13 10° NNW
Cosmos 1850 Rocket 4.2 16:27:37 10° SSW 16:33:03 79° ESE 16:38:23 10° NNE
SL-08 R/B 4.4 16:27:06 10° N 16:33:15 83° W 16:39:33 10° S
COSMOS 2455 3.3 16:27:16 10° SSW 16:33:20 67° ESE 16:39:20 10° NE
Cosmos 1484 Rocket 4.0 16:33:17 22° W 16:33:36 22° W 16:36:44 10° SW
Cosmos 1745 Rocket 4.3 16:27:26 10° N 16:33:47 72° E 16:40:10 10° SSE
Cosmos 1607 4.5 16:31:00 19° WNW 16:34:58 41° SW 16:40:45 10° SSE
Cosmos 2360 4.2 16:30:34 11° NNW 16:36:02 77° WSW 16:41:50 10° SSE
Cosmos 2369 3.7 16:30:44 10° NNW 16:36:23 79° WSW 16:42:10 10° SSE
Nadezhda 1 Rocket 4.2 16:31:03 10° S 16:37:15 76° E 16:43:21 10° NNE
CZ-4B R/B 4.4 16:35:16 10° NNW 16:38:49 35° W 16:42:36 10° SSW
Cosmos 2227 Rocket 2.6 16:33:33 10° SW 16:38:51 40° WNW 16:44:06 10° N
Cosmos 1867 3.5 16:35:44 13° NW 16:40:34 78° SW 16:46:01 10° SSE
RESURS DK-1 3.6 16:37:49 10° SW 16:40:59 21° WNW 16:44:09 10° NNW
Meteor 1-26 Rocket 4.3 16:39:09 10° SSW 16:44:25 50° W 16:49:40 10° NNW
Cosmos 2151 4.5 16:43:09 17° W 16:44:48 20° WSW 16:48:04 10° SSW
Cosmos 1862 3.8 16:41:32 10° N 16:45:29 64° E 16:49:30 10° SSE
Meteor 2-3 Rocket 4.2 16:43:26 10° NW 16:48:57 43° WSW 16:54:30 10° S
Aureole 1 Rocket 3.7 16:46:08 10° SSW 16:51:09 73° WNW 16:57:44 10° NNE
Cosmos 405 Rocket 4.3 16:49:13 15° WNW 16:51:17 21° WSW 16:54:29 10° SSW
Cosmos 2297 Rocket 3.2 16:49:53 10° SW 16:54:18 23° W 16:58:41 10° NNW
ADEOS Rocket 3.7 16:49:56 10° S 16:56:56 47° WSW 17:03:15 10° NW
Meteor PRIRODA 3.9 16:54:31 10° N 16:58:09 48° W 17:01:49 10° SSW
NOAA 6 4.4 16:54:35 10° NNE 16:59:43 73° ESE 17:04:55 10° S
Envisat 3.0 16:54:52 10° N 16:59:58 73° WNW 17:05:09 10° SSW
Cosmos 1461 2.9 16:57:06 10° NNW 17:00:56 71° ENE 17:04:49 10° SE
Abrixas rocket 2.8 16:59:35 12° WSW 17:01:44 33° SSW 17:04:06 10° SE
H-2A R/B 4.4 16:58:18 10° SE 17:02:20 30° E 17:06:17 10° NNE
Cosmos 1812 2.7 16:59:55 10° S 17:03:52 81° W 17:07:46 10° N
SL-4 R/B 3.9 17:00:07 10° WSW 17:04:09 30° S 17:08:24 10° ESE
Cosmos 2278 3.7 16:59:10 10° NNW 17:04:51 75° WSW 17:10:37 10° SSE
Cosmos 1743 Rocket 3.7 17:00:55 10° N 17:05:21 85° E 17:09:50 10° S
H-2A R/B 3.9 17:02:29 10° NE 17:06:09 41° ESE 17:09:58 10° S
Cosmos 1386 Rocket 4.5 17:00:08 10° NNW 17:06:16 68° W 17:12:23 10° S
SL-08 R/B 4.3 17:06:29 10° S 17:10:27 28° WSW 17:14:23 10° NW
Cosmos 1151 Rocket 4.1 17:08:42 10° SW 17:12:19 25° W 17:15:54 10° NW
SMAP 3.5 17:12:04 10° NNE 17:16:44 73° ESE 17:21:28 10° S
deb Chang Zheng 4 4.4 17:13:40 10° NNW 17:17:33 31° W 17:21:28 10° SW
ERBS 3.3 17:15:06 10° W 17:18:10 33° SW 17:21:18 10° SSE
Cosmos 1980 Rocket 2.4 17:14:20 10° NW 17:19:51 54° WSW 17:25:25 10° SSE
NOAA 12 4.2 17:16:55 10° NNE 17:22:13 88° ESE 17:27:34 10° SSW
